Torna al catalogo

STARLINK-37029

AttivoComunicazioniVLEO
NORAD 68271·PAYLOAD·🇺🇸 United States

Lanciato Mar 19, 2026 da Vandenberg Space Force Base

Loading…

Prossimi Passaggi (prossime 24 ore)

TLE

AggiornatoSource: CelesTrak SupGP

Epoca: Sep 15, 2026, 04:27 UTC

1 68271C 26055K   26258.18590278  .00058458  00000+0  17269-2 0  2589
2 68271  53.1572 154.5375 0001296  83.0211  62.3289 15.34365268    16

Traccia STARLINK-37029 in tempo reale con AllMySat

Download on the App Store